STARLINK-11609, 63132

Orbit data source: Space-Track

STARLINK-11609, 63132 is a payload satellite owned by SpaceX/Seattle (US) in LEO that was launched on Mon, 03 Mar 2025 UTC via an FALCON 9 launch vehicle from the Air Force Eastern Test Range (AFETR). Payload-class satellites include a variety of spacecraft equipped with specific instruments for various scientific and technological missions. These include communications satellites like Starlink; space stations such as the ISS; scientific satellites like the Hubble; Earth observation satellites from companies like Planet Labs, Umbra, and HawkEye 360; GPS; miniature CubeSats for education and research; and military/defense satellites.

Loading next visibility...
Identifier
63132, 2025-043A
Orbit
LEO
Country
Flag of USUS
Related business
Manufacturer
SpaceX/Seattle
Mission
Operational Commercial Communications
Bus & Motor
STARLINK V2MD, Unknown motor
Mass
960 kg wet, ~910 kg dry
Launch date (UTC)
2025-03-03 (11 months ago)
Launch vehicle
FALCON 9
Launch site
Air Force Eastern Test Range (AFETR)
Object type
Payload
Rocket body
Debris
Shape & HBR
Box + 2 Pan, 18.1 m
Radar Cross Section
36.964 m², Large (>1 m²)

Expand to show TLE details & history
Last TLE update: 5 hours ago

TLE from 5 hours ago
0 STARLINK-11609
1 63132U 25043A   26037.16981054  .00347084  00000-0  26013-2 0  9991
2 63132  43.0002  80.8181 0001738 287.9231  72.1447 15.70800365 54507
Epoch: 2026-02-06T04:04Z
TLE epoch observation values (Epoch: 2026-02-06T04:04:31.630Z)
Latitude
-0.00003°
Longitude
-116.62526°
Altitude
356.021 km
Speed
7.698 km/s
True Right ascension
05h 23m 16s
True Declination
0° 00' 00"
Sunlit
Object was in full shadow at epoch
Visualization orbit readout
Latitude
Unknown
Longitude
Unknown
Altitude
Unknown
Speed
Unknown
Apparent Right ascension
Unknown
Apparent Declination
Unknown
Sunlit
N/A
Visualization observer readout
Local Sidereal Time
11:38:05
Azimuth
Unknown
Elevation
Unknown
Doppler factor
Unknown
Orbital elements
Apogee altitude
359.761 km
Perigee altitude
357.419 km
Semi-major axis
6,736.727 km
Eccentricity
0.00017
Inclination
43.0002°
RAAN
80.8181°
Arg. of periapsis
287.9231°
True anomaly
72.16366°
Mean anomaly
72.1447°
Eccentric anomaly
72.15418°
Mean motion
3.92527 °/min
Orbital period
91.71 mins
BSTAR
0.0026013
Loading maneuver chart data...
Computing Atmospheric mass density...
Loading historical data...
Loading historical data...
Loading historical data...
Loading historical data...
Loading historical data...
Loading historical data...
Loading historical data...

Documentation

Showing up to 5 results
|